Flag for Ukraine Weather past 2 weeks in Luhansk, Ukraine

Now
43 °F

Light rain. Mostly cloudy.


Feels Like: 38 °F
Forecast: 32 / 40 °F
Wind: 8 mph from Southeast

Location: Rostov-Na-Donu

Current Time: Mar 4, 2015 at 3:51:11 PM

Latest Report: Mar 4, 2015 at 3:30 PM


Visibility: 4 mi

Pressure: 29.89 "Hg

Humidity: 81%

Dew point: 37 °F

Location of LuhanskLocation

Historic Weather in Luhansk — Graph

°F

Luhansk temperature yesterday

Maximum temperature yesterday: 41 °F (at 12:00 PM)
Minimum temperature yesterday: 34 °F (at 12:30 AM)
Average temperature yesterday: 37 °F

Past Weeks' High & Low Weather Summary

 TemperatureHumidityPressure
High52 °F (Feb 24, 2:00 PM)100% (Feb 27, 4:30 AM)30.63 "Hg (Feb 27, 4:30 AM)
Low5 °F (Feb 18, 7:00 AM)31% (Feb 24, 6:30 PM)29.89 "Hg (Mar 4, 12:30 PM)
Average32 °F77%30.18 "Hg
* Reported Feb 17 2:00 PM — Mar 4 2:30 PM, Luhansk, Weather by CustomWeather, © 2015

Note: Actual official high and low records may vary slightly from our data, if they occured in-between our weather recording intervals... More about our weather records

Advertising

Luhansk weather history for previous 24 hours

 ConditionsComfort  
Time TempWeatherWind HumidityBarometerVisibility
2:30 PM
Wed, Mar 4
45 °FLight rain. Mostly cloudy.13 mph66%29.89 "HgN/A
2:00 PM45 °FMostly cloudy.15 mph66%29.89 "HgN/A
1:30 PM45 °FPartly sunny.13 mph66%29.89 "HgN/A
1:00 PM46 °FPartly sunny.13 mph57%29.89 "HgN/A
12:30 PM45 °FPartly sunny.13 mph61%29.89 "HgN/A
12:00 PM43 °FSunny.15 mph66%29.92 "Hg10 mi
11:30 AM43 °FSunny.15 mph66%29.92 "Hg10 mi
11:00 AM41 °FSunny.15 mph70%29.92 "Hg10 mi
10:30 AM41 °FSunny.15 mph66%29.95 "Hg10 mi
10:00 AM39 °FSunny.13 mph70%29.95 "Hg10 mi
9:30 AM37 °FSunny.15 mph75%29.95 "Hg10 mi
9:00 AM36 °FSunny.10 mph75%29.95 "Hg10 mi
8:30 AM36 °FPartly sunny.10 mph75%29.95 "HgN/A
8:00 AM34 °FPartly sunny.8 mph81%29.95 "HgN/A
7:30 AM32 °FPartly cloudy.8 mph80%29.95 "HgN/A
6:30 AM34 °FMostly cloudy.6 mph81%29.95 "HgN/A
6:00 AM34 °FMostly cloudy.6 mph81%29.95 "HgN/A
5:30 AM32 °FMostly cloudy.3 mph80%29.95 "HgN/A
5:00 AM32 °FMostly cloudy.6 mph80%29.95 "HgN/A
4:30 AM34 °FMostly cloudy.8 mph75%29.95 "HgN/A
4:00 AM36 °FMostly cloudy.8 mph70%29.95 "HgN/A
3:30 AM36 °FMostly cloudy.10 mph70%29.98 "HgN/A
3:00 AM36 °FMostly cloudy.8 mph70%29.98 "HgN/A
2:30 AM36 °FMostly cloudy.8 mph70%29.98 "HgN/A
2:00 AM36 °FMostly cloudy.6 mph70%30.01 "HgN/A
1:30 AM36 °FMostly cloudy.8 mph75%30.01 "HgN/A
1:00 AM36 °FMostly cloudy.6 mph75%30.01 "HgN/A
12:30 AM36 °FMostly cloudy.8 mph75%30.01 "HgN/A
12:00 AM36 °FMostly cloudy.6 mph75%30.01 "HgN/A
11:30 PM
Tue, Mar 3
36 °FMostly cloudy.6 mph75%30.01 "HgN/A
10:30 PM36 °FMostly cloudy.8 mph75%30.01 "HgN/A
10:00 PM36 °FMostly cloudy.8 mph75%30.04 "HgN/A
9:30 PM37 °FPassing clouds.8 mph70%30.04 "HgN/A
9:00 PM37 °FPassing clouds.8 mph70%30.04 "HgN/A
8:30 PM37 °FPassing clouds.8 mph70%30.04 "HgN/A
8:00 PM37 °FPassing clouds.8 mph70%30.04 "HgN/A
7:30 PM37 °FPassing clouds.6 mph70%30.07 "HgN/A
7:00 PM39 °FPartly sunny.8 mph65%30.04 "HgN/A
6:30 PM39 °FPartly sunny.6 mph65%30.04 "HgN/A
6:00 PM39 °FPartly sunny.6 mph65%30.04 "HgN/A
5:30 PM41 °FSunny.6 mph61%30.04 "Hg10 mi
5:00 PM41 °FSunny.8 mph61%30.04 "Hg10 mi
4:30 PM41 °FSunny.8 mph61%30.04 "Hg10 mi
4:00 PM41 °FSunny.6 mph61%30.04 "Hg10 mi
3:30 PM41 °FPassing clouds.6 mph61%30.04 "HgN/A
3:00 PM41 °FPassing clouds.6 mph61%30.07 "HgN/A
Weather by CustomWeather, © 2015

See weather overviewHow to use our weather pages